カタログに戻る

STARLINK-5269

運用中通信VLEO
NORAD 54161·PAYLOAD·🇺🇸 United States

打ち上げ Oct 28, 2022 から Vandenberg Space Force Base

Loading…

次のパス (今後24時間)

TLE

最新Source: CelesTrak SupGP

元期: Sep 14, 2026, 22:21 UTC

1 54161C 22141E   26257.93173611  .00026543  00000+0  85345-3 0  2574
2 54161  53.1585 233.6980 0001159  93.6835 232.9283 15.31693227    16

AllMySatでSTARLINK-5269をリアルタイム追跡

Download on the App Store